Location: Sternwarte ZA, Rosenfeld-Brittheim
(48.2889°N, 8.6789°E)
Time: 12:10:15
(UTC+01:00)

ISS - Pass Details

Date: 18 January 2021
Orbit: 418 x 419 km, 51.6° (Epoch: 20 January)

Event Time Altitude Azimuth Distance (km) Brightness Sun altitude
Rises 18:39:01 0° 192° (SSW) 2,350 0.4 -15.6°
Reaches altitude 10° 18:42:01 10° 162° (SSE) 1,493 -1.0 -16.1°
Enters shadow 18:43:01 12° 145° (SE) 1,361 -1.4 -16.2°
